Simultaneous Nadir Overpasses (SNOs) Predictions

Prediction of SNOs between GOES-14 and NOAA-20 Satellite Orbit:

Table of predicted SNOs for the next 14.0 days since TLE Epoch: 6/22/2024
Index Date Time (GOES-14) GOES-14 Lat,Lon NOAA-20 Lat,Lon Distance(km) Time Diff (sec)
1 06/23/2024 08:48:40 -0.10,-108.54 0.51,-111.26 309.09 80
2 06/24/2024 08:32:32 -0.08,-108.54 -0.51,-106.72 208.08 80
3 06/25/2024 20:51:45 0.12,-108.50 -0.64,-112.01 399.54 80
4 06/26/2024 20:35:36 0.10,-108.50 0.32,-107.46 118.29 80
5 06/28/2024 08:54:41 -0.13,-108.53 0.78,-112.73 478.51 80
6 06/29/2024 08:38:32 -0.12,-108.52 -0.18,-108.18 38.84 80
7 07/01/2024 20:38:57 0.14,-108.47 0.06,-108.94 52.15 80
8 07/02/2024 20:22:48 0.12,-108.47 1.03,-104.38 465.49 80
9 07/04/2024 08:41:52 -0.16,-108.50 0.12,-109.64 131.40 80
10 07/05/2024 08:25:44 -0.15,-108.49 -0.91,-105.10 385.67 80
